FW6400 Weather Reports


time (UTC)temp
C
wind
direction
speed
KPH
gust
KPH
rain 1hr
cm
rain 24hr
cm
rain mn
cm
humidity
%
barometer
mb
20260505021533 13 0.0 6.4 0.00 0.00 0.00 90 1013.0
20260505020057 13 0.0 4.8 0.00 0.00 0.00 89 1012.9
20260505014506 13 0.0 9.7 0.00 0.00 0.00 88 1012.8
20260505013102 13 0.0 6.4 0.00 0.00 0.00 87 1012.8
20260505011537 13 0.0 4.8 0.00 0.00 0.00 86 1012.5
20260505010004 13 1.6 6.4 0.00 0.00 0.00 85 1012.5
20260505004603 14 0.0 4.8 0.00 0.00 0.00 84 1012.5
20260505003056 14 0.0 4.8 0.00 0.00 0.00 82 1012.4
20260505001539 15 0.0 4.8 0.00 0.00 0.00 80 1012.2
20260505000109 15 1.6 9.7 0.00 0.00 0.00 79 1012.1
20260504234538 15 1.6 8.0 0.00 0.00 0.00 79 1012.0
20260504233017 15 1.6 6.4 0.00 0.00 0.00 79 1012.0
20260504231503 15 0.0 4.8 0.00 0.00 0.00 78 1012.0
20260504230011 15 1.6 6.4 0.00 0.00 0.00 77 1012.0
20260504224559 15 0.0 8.0 0.00 0.00 0.00 77 1012.0
20260504223021 16 0.0 4.8 0.00 0.00 0.00 77 1011.9
20260504221507 16 0.0 4.8 0.00 0.00 0.00 77 1012.0
20260504220040 16 1.6 8.0 0.00 0.00 0.00 78 1012.1
20260504214525 16 1.6 8.0 0.00 0.00 0.00 78 1012.0
20260504213049 16 0.0 9.7 0.00 0.00 0.00 78 1012.1
20260504211534 16 0.0 6.4 0.00 0.00 0.00 77 1012.2
20260504210012 16 0.0 8.0 0.00 0.00 0.00 77 1012.3
20260504204606 16 3.2 6.4 0.00 0.00 0.00 76 1012.3
20260504203029 16 1.6 8.0 0.00 0.00 0.00 76 1012.4
20260504201630 16 1.6 8.0 0.00 0.00 0.00 76 1012.3
20260504200147 16 1.6 11.3 0.00 0.00 0.00 76 1012.4
20260504194517 17 1.6 8.0 0.00 0.00 0.00 74 1012.4
20260504193043 17 3.2 12.9 0.00 0.00 0.00 73 1012.7
20260504191526 17 3.2 9.7 0.00 0.00 0.00 73 1012.7
20260504190040 18 0.0 6.4 0.00 0.00 0.00 72 1013.0
20260504184527 17 3.2 8.0 0.00 0.00 0.00 70 1013.2
20260504183004 18 1.6 8.0 0.00 0.00 0.00 71 1013.2
20260504181559 18 1.6 8.0 0.00 0.00 0.00 68 1013.4
20260504180019 18 1.6 6.4 0.00 0.00 0.00 69 1013.5
20260504174553 18 1.6 8.0 0.00 0.00 0.00 69 1013.5
20260504173033 19 3.2 9.7 0.00 0.00 0.00 67 1013.8
20260504171513 20 1.6 8.0 0.00 0.00 0.00 67 1014.0
20260504140109 17 1.6 6.4 0.00 0.00 0.00 66 1015.4
20260504081550 8 0.0 0.0 0.00 0.00 0.00 78 1016.4
20260504044547 10 0.0 3.2 0.00 0.00 0.00 74 1015.7
20260504043004 10 0.0 3.2 0.00 0.00 0.00 72 1015.7
20260504041534 10 0.0 3.2 0.00 0.00 0.00 71 1015.7
20260504040003 10 0.0 3.2 0.00 0.00 0.00 72 1015.6
20260504034516 10 0.0 1.6 0.00 0.00 0.00 75 1015.5
20260504033048 9 0.0 1.6 0.00 0.00 0.00 74 1015.6
20260504031605 9 0.0 1.6 0.00 0.00 0.00 72 1015.4
20260504030049 9 0.0 1.6 0.00 0.00 0.00 70 1015.4
20260504024525 9 0.0 1.6 0.00 0.00 0.00 68 1015.5
20260504023031 9 0.0 0.0 0.00 0.00 0.00 65 1015.4